Location: Poigny-la-Forêt
(48.6876°N, 1.7701°E)
Time: 18:19:56
(UTC+02:00)

N. Korean satellite - Visible Passes

Search period start: 14 October 2019 00:00
Search period end: 24 October 2019 00:00
Orbit: 455 x 508 km, 97.2° (Epoch: 14 October)

Date Brightness Start Highest point End Pass type
(mag) Time Alt. Az. Time Alt. Az. Time Alt. Az.
14 Oct 10.1 20:00:50 10° SW 20:02:49 15° W 20:04:50 10° NW visible
15 Oct 8.8 07:21:38 10° NNE 07:24:51 31° E 07:28:06 10° SSE visible
15 Oct 9.0 19:34:22 10° SSW 19:37:20 27° W 19:40:21 10° NW visible
16 Oct 9.9 06:56:58 10° NE 06:59:24 17° E 07:01:51 10° SE visible
18 Oct 7.6 07:38:55 10° NNE 07:42:26 51° E 07:45:59 10° S visible
18 Oct 9.9 19:52:34 10° SW 19:54:58 18° W 19:57:22 10° NW visible
19 Oct 9.1 07:13:56 10° NE 07:17:02 26° E 07:20:09 10° SSE visible
19 Oct 8.6 19:26:21 10° SSW 19:29:29 34° W 19:32:41 10° NNW visible
20 Oct 10.1 06:49:29 10° NE 06:51:33 14° E 06:53:38 10° SE visible
21 Oct 10.3 20:11:25 10° WSW 20:12:35 11° W 20:13:47 10° WNW visible
22 Oct 8.1 07:31:08 10° NNE 07:34:36 42° E 07:38:06 10° S visible
22 Oct 9.5 19:44:21 10° SW 19:47:03 21° W 19:49:48 10° NW visible
23 Oct 9.5 07:06:15 10° NE 07:09:11 22° E 07:12:06 10° SSE visible
23 Oct 8.0 19:18:20 10° S 19:21:36 42° W 19:24:56 10° NNW visible
